Location: Washington
(38.8950°N, 77.0370°W)
Time: 16:58:42
(UTC-04:00)

ISS - All Passes

Search period start: 29 August 2015 00:00
Search period end: 08 September 2015 00:00
Orbit: 399 x 401 km, 51.6° (Epoch: 29 August)

Date Brightness Start Highest point End Pass type
(mag) Time Alt. Az. Time Alt. Az. Time Alt. Az.
29 Aug - 10:09:06 10° SW 10:12:17 64° SE 10:15:31 10° ENE daylight
29 Aug - 11:46:32 10° WNW 11:48:58 19° NNW 11:51:22 10° NNE daylight
29 Aug - 15:02:23 10° NNW 15:03:56 13° NNE 15:05:32 10° NE daylight
29 Aug - 16:37:46 10° NW 16:40:56 52° NE 16:44:07 10° ESE daylight
29 Aug - 18:15:08 10° W 18:17:03 15° SW 18:18:53 10° SSW daylight
30 Aug - 09:15:58 10° SSW 09:18:49 29° SE 09:21:42 10° ENE daylight
30 Aug - 10:52:18 10° W 10:55:11 29° NNW 10:58:05 10° NNE daylight
30 Aug - 12:31:55 10° NNW 12:32:25 10° N 12:32:54 10° N daylight
30 Aug - 14:09:33 10° N 14:10:01 10° N 14:10:31 10° NNE daylight
30 Aug - 15:44:22 10° NNW 15:47:15 29° NNE 15:50:09 10° E daylight
30 Aug - 17:20:44 10° WNW 17:23:38 29° SW 17:26:29 10° SSE daylight
31 Aug - 08:23:32 10° SSE 08:25:22 15° SE 08:27:18 10° E daylight
31 Aug - 09:58:18 10° WSW 10:01:29 52° NW 10:04:40 10° NE daylight
31 Aug - 11:36:53 10° NW 11:38:29 13° NNW 11:40:02 10° NNE daylight
31 Aug - 14:51:03 10° NNW 14:53:27 19° NNE 14:55:52 10° ENE daylight
31 Aug - 16:26:53 10° WNW 16:30:07 64° SW 16:33:19 10° SE daylight
01 Sep - 09:04:37 10° SW 09:07:50 75° SE 09:11:05 10° NE daylight
01 Sep - 10:42:15 10° WNW 10:44:33 17° NNW 10:46:50 10° NNE daylight
01 Sep - 13:57:49 10° NNW 13:59:32 14° NNE 14:01:17 10° NE daylight
01 Sep - 15:33:15 10° NW 15:36:29 60° NE 15:39:41 10° ESE daylight
01 Sep - 17:11:00 10° W 17:12:32 13° SW 17:13:58 10° SSW daylight
02 Sep - 08:11:17 10° SSW 08:14:15 34° SE 08:17:15 10° ENE daylight
02 Sep - 09:47:52 10° W 09:50:41 26° NNW 09:53:29 10° NNE daylight
02 Sep - 13:04:46 10° N 13:05:32 11° N 13:06:21 10° NNE daylight
02 Sep - 14:39:45 10° NW 14:42:43 32° NNE 14:45:42 10° E daylight
02 Sep - 16:16:17 10° WNW 16:19:02 25° SW 16:21:45 10° S daylight
03 Sep - 07:18:35 10° S 07:20:43 17° SE 07:22:55 10° E daylight
03 Sep - 08:53:44 10° WSW 08:56:52 45° NW 09:00:00 10° NE daylight
03 Sep - 10:32:29 10° NW 10:33:55 12° NNW 10:35:18 10° N daylight
03 Sep - 13:46:21 10° NNW 13:48:51 20° NNE 13:51:22 10° ENE daylight
03 Sep - 15:22:16 10° WNW 15:25:27 54° SW 15:28:37 10° SE daylight
04 Sep - 07:59:53 10° SW 08:03:07 87° SE 08:06:23 10° NE daylight
04 Sep - 09:37:43 10° WNW 09:39:54 16° NNW 09:42:02 10° NNE daylight
04 Sep - 12:53:00 10° NNW 12:54:52 14° NNE 12:56:46 10° NE daylight
04 Sep - 14:28:30 10° NW 14:31:45 69° NE 14:34:59 10° ESE daylight
04 Sep - 16:06:48 10° WSW 16:07:46 11° SW 16:08:35 10° SW daylight
05 Sep - 07:06:24 10° SSW 07:09:26 39° SE 07:12:30 10° ENE daylight
05 Sep - 08:43:11 10° W 08:45:55 24° NNW 08:48:38 10° NNE daylight
05 Sep - 11:59:47 10° N 12:00:48 11° NNE 12:01:50 10° NNE daylight
05 Sep - 13:34:54 10° NW 13:37:56 35° NNE 13:40:58 10° E daylight
05 Sep - 15:11:34 10° W 15:14:11 22° SW 15:16:45 10° S daylight
06 Sep - 06:13:27 10° S 06:15:48 19° SE 06:18:14 10° E visible
06 Sep - 07:48:55 10° WSW 07:52:00 40° NNW 07:55:05 10° NE daylight
06 Sep - 09:27:50 10° NW 09:29:05 12° NNW 09:30:18 10° N daylight
06 Sep - 12:41:23 10° NNW 12:43:59 22° NNE 12:46:38 10° E daylight
06 Sep - 14:17:24 10° WNW 14:20:32 47° SW 14:23:38 10° SSE daylight
07 Sep - 06:54:55 10° SW 06:58:09 81° NW 07:01:24 10° NE daylight
07 Sep - 08:32:55 10° WNW 08:34:58 15° NNW 08:36:59 10° NNE daylight
07 Sep - 11:47:57 10° NNW 11:49:56 15° NNE 11:51:58 10° ENE daylight
07 Sep - 13:23:31 10° NW 13:26:46 80° NE 13:30:00 10° SE daylight
